Tracking 20242 objects as of 24-Jan-2020
HD Live streaming from Space Station
objects crossing your sky now

FENGYUN 1C DEB

Track FENGYUN 1C DEB now!
10-day predictions


NORAD ID: 29874
Int'l Code: 1999-025FU
Perigee: 780.4 km
Apogee: 981.3 km
Inclination: 98.3 °
Period: 102.4 minutes
Semi major axis: 7251 km
RCS: 0.0288 m2 (small)
Launch date: May 10, 1999
Source: People's Republic of China (PRC)
Launch site: Taiyaun Space Center, China (TSC)

Note: This is SATELLITE DEBRIS
aabbcc
Your satellite tracking list
Your tracking list is empty




NASA's NSSDC Master Catalog

Two Line Element Set (TLE):
1 29874U 99025FU  20023.94966407  .00001078  00000-0  62649-3 0  9993
2 29874  98.3449  30.6444 0138461  50.4139 340.0407 14.05818170665038
Source of the keplerian elements: AFSPC